TERRASAR-X

Last updated on Wed Sep 09 2026 00:02:45 GMT+0000 (Coordinated Universal Time)

1 31698U 07026A 26251.44926513 .00000190 00000+0 12264-4 0 9990 2 31698 97.4468 257.9771 0001787 82.8025 277.3413 15.19147053 65861
UTC large
Height (km)
Speed (km/s)
/
Latitude / Longitude
Inclination (degrees)
Orbital Period (minutes)
Azimuth
Elevation
Range (km)
Doppler Factor

Next 0 passes for location: London (51.5072 / 0.1276)

No passes found over London.
TERRASAR-X